Regional Weather Roundup
Issued by NWS Binghamton, NY

Home | Current Version | Previous Version | Text Only | Print | Product List | Glossary On
Versions: 1 2 3 4 5 6 7 8 9 10 11 12 13 14 15 16 17 18 19 20 21 22 23 24 25 26 27
000
ASUS41 KBGM 230010
RWRBGM

REGIONAL WEATHER ROUNDUP
NATIONAL WEATHER SERVICE BINGHAMTON NY
800 PM EDT SAT JUL 22 2017

Note: "fair" indicates few or no clouds below 12,000 feet with no
significant weather and/or obstructions to visibility.

* = Station(s) that does not report precipitation, such as rain,
snow, etc, also no thunder or fog.

NYZ009-015>018-022>025-036-037-044>046-055>057-062-230100
...Central New York...

CITY           SKY/WX    TMP DP  RH WIND       PRES   REMARKS
Binghamton     CLOUDY    70  63  78 E6        29.83R
Cortland       FAIR      73  63  68 CALM      29.81F
Dansville      CLOUDY    74  67  78 CALM      29.80S
Elmira         MOCLDY    76  68  76 N6        29.79R
Seneca Falls   CLEAR     72  64  78 NE5       29.80S
Ithaca         FAIR      73  65  75 E3        29.82S
Hamilton       CLEAR     72  64  78 CALM      29.82S
Hornell        CLOUDY    72  63  73 CALM      29.85R
Monticello     NOT AVBL
Norwich        PTCLDY    72  64  78 NE3       29.82S
Oneonta        CLEAR     70 N/A N/A CALM      29.84S
Penn Yan       CLOUDY    72  65  78 CALM      29.81S
Rome           FAIR      72  67  84 CALM      29.81S
Sidney         CLOUDY    72  66  83 CALM      29.81S
Syracuse       CLOUDY    71  66  84 NE5       29.79S
$$

PAZ038>040-043-044-047-048-072-230100
...Northeast Pennsylvania...

CITY           SKY/WX    TMP DP  RH WIND       PRES   REMARKS
Hazleton       LGT RAIN  68  64  88 CALM      29.85S
Scranton       LGT RAIN  73  70  90 W5        29.79S FOG
$$
&&
KEY
WCI = Wind Chill Index
VSB = Visibility
HX  = Heat Index
$$




USA.gov is the U.S. government's official web portal to all federal, state and local government web resources and services.